Location: Sobotiste
(48.7170°N, 17.4000°E)
Time: 16:11:02
(UTC+02:00)

HTV-X1 - Visible Passes

Search period start: 21 May 2026 00:00
Search period end: 31 May 2026 00:00
Orbit: 372 x 382 km, 51.6° (Epoch: 21 May)

Date Brightness Start Highest point End Pass type
(mag) Time Alt. Az. Time Alt. Az. Time Alt. Az.
21 May ? 22:15:59 10° WNW 22:18:57 44° SSW 22:20:05 29° SSE visible
22 May ? 21:14:47 10° WNW 21:17:53 80° SSW 21:20:57 10° ESE visible
22 May ? 22:51:19 10° W 22:53:14 16° SW 22:53:14 16° SW visible
23 May ? 21:49:38 10° W 21:52:25 31° SW 21:54:19 16° SSE visible
24 May ? 22:25:42 10° WSW 22:26:38 11° SW 22:27:29 10° SSW visible
25 May ? 21:23:16 10° W 21:25:42 21° SW 21:28:08 10° SSE visible
